Regional Weather Roundup
Issued by NWS

Home | Current Version | Previous Version | Graphics & Text | Print | Product List | Glossary On
Versions: 1 2 3 4 5 6 7 8 9 10 11 12 13 14 15 16 17 18 19 20 21 22 23 24 25 26 27
000
ASUS45 KSLC 301410
RWRUT

UTAH REGIONAL WEATHER ROUNDUP
NATIONAL WEATHER SERVICE SALT LAKE CITY UT
800 AM MDT SUN APR 30 2017

UTZ001>011-023>025-301500-

NORTHERN UTAH

CITY           SKY/WX    TMP DP  RH WIND       PRES   REMARKS
BRIGHAM CITY   CLOUDY    40  35  83 CALM      30.19S
HILL AFB       CLOUDY    39  25  57 SE14      30.19R WCI  30
LOGAN          CLOUDY    38  33  82 CALM      30.18S
OGDEN          CLOUDY    40  27  59 SE6       30.18R
SALT LAKE CITY CLOUDY    44  31  60 SE12      30.19R
TOOELE VALLEY  CLOUDY    41  32  70 S12       30.19S
WENDOVER       CLOUDY    42  29  59 CALM      30.18S
HEBER CITY     MOSUNNY   28  21  74 CALM      30.22S
WEST JORDAN    PTSUNNY   45  38  77 S7        30.20S

$$

UTZ011>015-024>027-301500-

CENTRAL/NORTHEAST UTAH

CITY           SKY/WX    TMP DP  RH WIND       PRES   REMARKS
PROVO AIRPORT  MOSUNNY   38  27  64 E3        30.23S
MOAB/CANYONLAN SUNNY     41  16  36 CALM      30.17R
DELTA          PTSUNNY   36  30  80 CALM      30.24R
PRICE          SUNNY     39  19  44 CALM      30.18R
RICHFIELD      SUNNY     30  25  80 CALM      30.27R
ROOSEVELT      SUNNY     34  21  60 CALM      30.22S
VERNAL         SUNNY     35  21  56 CALM      30.19S

$$

UTZ013>016-019>022-027-301500-

SOUTHERN UTAH

CITY           SKY/WX    TMP DP  RH WIND       PRES   REMARKS
BRYCE CANYON   SUNNY     29  17  61 W8        30.24R WCI  21
CEDAR CITY     SUNNY     33  20  58 N3        30.22R
MILFORD        SUNNY     33  21  61 S6        30.23R WCI  28
ST GEORGE      MOSUNNY   50  18  28 SE7       30.20R
HANKSVILLE     SUNNY     37  18  44 CALM      30.22R
KANAB          SUNNY     39  21  48 N3        30.26R
BLANDING       SUNNY     41  15  35 CALM      30.21R

$$

REGIONAL REPORTS     COLORADO/ARIZONA

CITY           SKY/WX    TMP DP  RH WIND       PRES   REMARKS
CRAIG, CO      SUNNY     28  22  78 CALM      30.18R
GRAND JUNCTION SUNNY     39  19  44 CALM      30.18R
RIFLE, CO      SUNNY     30  22  72 CALM      30.19R
MONTROSE, CO   SUNNY     34  23  64 SE7       30.19R WCI  28
CORTEZ, CO     SUNNY     39  16  39 NW16G26   30.11R WCI  30
COLORADO CITY    N/A     37  19  48 CALM      30.24R
PAGE, AZ       SUNNY     50  19  29 VRB3      30.18R
GRAND CANYON   SUNNY     32  15  49 E3        30.23R
KINGMAN, AZ    SUNNY     48  18  30 CALM      30.16R
FLAGSTAFF, AZ  SUNNY     33  14  45 CALM      30.21R

$$

REGIONAL REPORTS    NEVADA/IDAHO/WYOMING

CITY           SKY/WX    TMP DP  RH WIND       PRES   REMARKS
LAS VEGAS, NV  MOSUNNY   61  17  18 CALM      30.13R
ELY, NY        PTSUNNY   28  20  71 S9        30.25R WCI  19
ELKO, NV       CLOUDY    36  29  75 CALM      30.22R
POCATELLO, ID  CLOUDY    42  30  62 SW14      30.14S
BURLEY, ID     PTSUNNY   46  29  51 SW12      30.11F
FORT BRIDGER,    N/A     36  23  59 SW15      30.20S WCI  26
EVANSTON, WY   CLOUDY    29  22  75 SW9       30.19S WCI  20
ROCK SPRINGS,  SUNNY     33  24  69 SW8       30.15F WCI  26
KEMMERER, WY     N/A     32  27  80 SW3       30.17F

$$




USA.gov is the U.S. government's official web portal to all federal, state and local government web resources and services.